Time,TemperatureF,DewpointF,PressureIn,WindDirection,WindDirectionDegrees,WindSpeedMPH,WindSpeedGustMPH,Humidity,HourlyPrecipIn,Conditions,Clouds,dailyrainin,SoftwareType,DateUTC
2013-01-03 00:02:00,21.9,21.9,30.28,ENE,64,0.0,0.0,100,0.00,,,0.00,VWS V13.01,2013-01-03 06:02:00,
2013-01-03 00:07:00,21.7,21.7,30.28,ENE,64,0.0,0.0,100,0.00,,,0.00,VWS V13.01,2013-01-03 06:07:00,
2013-01-03 00:12:00,21.7,21.7,30.28,ENE,64,0.0,0.0,100,0.00,,,0.00,VWS V13.01,2013-01-03 06:12:00,
2013-01-03 00:17:00,21.5,21.5,30.28,ENE,64,0.0,0.0,100,0.00,,,0.00,VWS V13.01,2013-01-03 06:17:00,
2013-01-03 00:22:00,21.5,21.5,30.28,ENE,64,0.0,0.0,100,0.00,,,0.00,VWS V13.01,2013-01-03 06:22:00,
2013-01-03 00:27:00,21.4,21.4,30.28,ENE,64,0.0,0.0,100,0.00,,,0.00,VWS V13.01,2013-01-03 06:27:00,
2013-01-03 00:32:00,21.2,21.2,30.28,ENE,64,0.0,0.0,100,0.00,,,0.00,VWS V13.01,2013-01-03 06:32:00,
2013-01-03 00:37:00,21.2,21.2,30.28,ENE,64,0.0,0.0,100,0.00,,,0.00,VWS V13.01,2013-01-03 06:37:00,
2013-01-03 00:42:00,21.0,21.0,30.28,ENE,64,0.0,0.0,100,0.00,,,0.00,VWS V13.01,2013-01-03 06:42:00,
2013-01-03 00:47:00,20.8,20.8,30.25,ENE,64,0.0,0.0,100,0.00,,,0.00,VWS V13.01,2013-01-03 06:47:00,
2013-01-03 00:52:00,20.8,20.8,30.25,ENE,64,0.0,0.0,100,0.00,,,0.00,VWS V13.01,2013-01-03 06:52:00,
2013-01-03 00:57:00,20.8,20.8,30.25,ENE,64,0.0,0.0,100,0.00,,,0.00,VWS V13.01,2013-01-03 06:57:00,
2013-01-03 01:02:00,20.8,20.8,30.25,ENE,64,0.0,0.0,100,0.00,,,0.00,VWS V13.01,2013-01-03 07:02:00,
2013-01-03 01:07:00,20.6,20.6,30.25,ENE,64,0.0,0.0,100,0.00,,,0.00,VWS V13.01,2013-01-03 07:07:00,
2013-01-03 01:12:00,20.5,20.5,30.25,ENE,64,0.0,0.0,100,0.00,,,0.00,VWS V13.01,2013-01-03 07:12:00,
2013-01-03 01:17:00,20.5,20.5,30.25,ENE,64,0.0,0.0,100,0.00,,,0.00,VWS V13.01,2013-01-03 07:17:00,
2013-01-03 01:22:00,20.5,20.5,30.25,ENE,64,0.0,0.0,100,0.00,,,0.00,VWS V13.01,2013-01-03 07:22:00,
2013-01-03 01:27:00,20.5,20.5,30.25,ENE,64,0.0,0.0,100,0.00,,,0.00,VWS V13.01,2013-01-03 07:27:00,
2013-01-03 01:32:00,20.5,20.5,30.25,ENE,64,0.0,0.0,100,0.00,,,0.00,VWS V13.01,2013-01-03 07:32:00,
2013-01-03 01:37:00,20.3,20.3,30.25,ENE,64,0.0,0.0,100,0.00,,,0.00,VWS V13.01,2013-01-03 07:37:00,
2013-01-03 01:42:00,20.3,20.3,30.25,ENE,64,0.0,0.0,100,0.00,,,0.00,VWS V13.01,2013-01-03 07:42:00,
2013-01-03 01:47:00,20.3,20.3,30.28,ENE,64,0.0,0.0,100,0.00,,,0.00,VWS V13.01,2013-01-03 07:47:00,
2013-01-03 01:52:00,20.1,20.1,30.28,ENE,64,0.0,0.0,100,0.00,,,0.00,VWS V13.01,2013-01-03 07:52:00,
2013-01-03 01:57:00,19.9,19.9,30.28,ENE,64,0.0,0.0,100,0.00,,,0.00,VWS V13.01,2013-01-03 07:57:00,
2013-01-03 02:02:00,19.9,19.9,30.28,ENE,64,0.0,0.0,100,0.00,,,0.00,VWS V13.01,2013-01-03 08:02:00,
2013-01-03 02:07:00,19.9,19.9,30.28,ENE,64,0.0,0.0,100,0.00,,,0.00,VWS V13.01,2013-01-03 08:07:00,
2013-01-03 02:12:00,19.9,19.9,30.28,ENE,64,0.0,0.0,100,0.00,,,0.00,VWS V13.01,2013-01-03 08:12:00,
2013-01-03 02:17:00,19.9,19.9,30.28,ENE,64,0.0,0.0,100,0.00,,,0.00,VWS V13.01,2013-01-03 08:17:00,
2013-01-03 02:22:00,19.7,19.7,30.28,ENE,64,0.0,0.0,100,0.00,,,0.00,VWS V13.01,2013-01-03 08:22:00,
2013-01-03 02:27:00,19.7,19.7,30.28,ENE,64,0.0,0.0,100,0.00,,,0.00,VWS V13.01,2013-01-03 08:27:00,
2013-01-03 02:32:00,19.6,19.6,30.28,ENE,64,0.0,0.0,100,0.00,,,0.00,VWS V13.01,2013-01-03 08:32:00,
2013-01-03 02:37:00,19.4,19.4,30.28,ENE,64,0.0,0.0,100,0.00,,,0.00,VWS V13.01,2013-01-03 08:37:00,
2013-01-03 02:42:00,19.4,19.4,30.28,ENE,64,0.0,0.0,100,0.00,,,0.00,VWS V13.01,2013-01-03 08:42:00,
2013-01-03 02:47:00,19.6,19.6,30.28,ENE,64,0.0,0.0,100,0.00,,,0.00,VWS V13.01,2013-01-03 08:47:00,
2013-01-03 02:52:00,19.7,19.7,30.28,ENE,64,0.0,0.0,100,0.00,,,0.00,VWS V13.01,2013-01-03 08:52:00,
2013-01-03 02:57:00,19.6,19.6,30.28,ENE,64,0.0,0.0,100,0.00,,,0.00,VWS V13.01,2013-01-03 08:57:00,
2013-01-03 03:02:00,19.6,19.6,30.31,ENE,64,0.0,0.0,100,0.00,,,0.00,VWS V13.01,2013-01-03 09:02:00,
2013-01-03 03:07:00,19.4,19.1,30.31,ENE,64,0.0,0.0,99,0.00,,,0.00,VWS V13.01,2013-01-03 09:07:00,
2013-01-03 03:12:00,19.4,19.1,30.31,ENE,64,0.0,0.0,99,0.00,,,0.00,VWS V13.01,2013-01-03 09:12:00,
2013-01-03 03:17:00,19.4,18.9,30.28,ENE,64,0.0,0.0,98,0.00,,,0.00,VWS V13.01,2013-01-03 09:17:00,
2013-01-03 03:22:00,19.4,18.9,30.28,ENE,64,0.0,0.0,98,0.00,,,0.00,VWS V13.01,2013-01-03 09:22:00,
2013-01-03 03:27:00,19.4,18.9,30.28,ENE,64,0.0,0.0,98,0.00,,,0.00,VWS V13.01,2013-01-03 09:27:00,
2013-01-03 03:32:00,19.2,18.7,30.28,ENE,64,0.0,0.0,98,0.00,,,0.00,VWS V13.01,2013-01-03 09:32:00,
2013-01-03 03:37:00,19.2,18.7,30.28,ENE,64,0.0,0.0,98,0.00,,,0.00,VWS V13.01,2013-01-03 09:37:00,
2013-01-03 03:42:00,19.2,18.7,30.28,ENE,64,0.0,0.0,98,0.00,,,0.00,VWS V13.01,2013-01-03 09:42:00,
2013-01-03 03:47:00,19.0,18.5,30.28,ENE,64,0.0,0.0,98,0.00,,,0.00,VWS V13.01,2013-01-03 09:47:00,
2013-01-03 03:52:00,19.0,18.5,30.28,ENE,64,0.0,0.0,98,0.00,,,0.00,VWS V13.01,2013-01-03 09:52:00,
2013-01-03 03:57:00,18.8,18.4,30.28,ENE,64,0.0,0.0,98,0.00,,,0.00,VWS V13.01,2013-01-03 09:57:00,
2013-01-03 04:02:00,19.0,18.5,30.28,ENE,64,0.0,0.0,98,0.00,,,0.00,VWS V13.01,2013-01-03 10:02:00,
2013-01-03 04:07:00,19.0,18.5,30.28,ENE,64,0.0,0.0,98,0.00,,,0.00,VWS V13.01,2013-01-03 10:07:00,
2013-01-03 04:12:00,18.8,18.4,30.28,ENE,64,0.0,0.0,98,0.00,,,0.00,VWS V13.01,2013-01-03 10:12:00,
2013-01-03 04:17:00,18.7,18.2,30.28,ENE,64,0.0,0.0,98,0.00,,,0.00,VWS V13.01,2013-01-03 10:17:00,
2013-01-03 04:22:00,18.5,18.0,30.28,ENE,64,0.0,0.0,98,0.00,,,0.00,VWS V13.01,2013-01-03 10:22:00,
2013-01-03 04:27:00,18.7,18.2,30.28,ENE,64,0.0,0.0,98,0.00,,,0.00,VWS V13.01,2013-01-03 10:27:00,
2013-01-03 04:32:00,18.7,18.2,30.28,ENE,64,0.0,0.0,98,0.00,,,0.00,VWS V13.01,2013-01-03 10:32:00,
2013-01-03 04:37:00,18.5,18.0,30.28,ENE,64,0.0,0.0,98,0.00,,,0.00,VWS V13.01,2013-01-03 10:37:00,
2013-01-03 04:42:00,18.5,18.0,30.28,ENE,64,0.0,0.0,98,0.00,,,0.00,VWS V13.01,2013-01-03 10:42:00,
2013-01-03 04:47:00,18.3,17.8,30.28,ENE,64,0.0,0.0,98,0.00,,,0.00,VWS V13.01,2013-01-03 10:47:00,
2013-01-03 04:52:00,18.3,17.8,30.28,ENE,64,0.0,0.0,98,0.00,,,0.00,VWS V13.01,2013-01-03 10:52:00,
2013-01-03 04:57:00,18.3,17.8,30.28,ENE,64,0.0,0.0,98,0.00,,,0.00,VWS V13.01,2013-01-03 10:57:00,
2013-01-03 05:02:00,18.1,17.6,30.28,ENE,64,0.0,0.0,98,0.00,,,0.00,VWS V13.01,2013-01-03 11:02:00,
2013-01-03 05:07:00,18.1,17.6,30.28,ENE,64,0.0,0.0,98,0.00,,,0.00,VWS V13.01,2013-01-03 11:07:00,
2013-01-03 05:12:00,18.1,17.6,30.28,ENE,64,0.0,0.0,98,0.00,,,0.00,VWS V13.01,2013-01-03 11:12:00,
2013-01-03 05:17:00,18.1,17.6,30.31,ENE,64,0.0,0.0,98,0.00,,,0.00,VWS V13.01,2013-01-03 11:17:00,
2013-01-03 05:22:00,18.1,17.6,30.31,ENE,64,0.0,0.0,98,0.00,,,0.00,VWS V13.01,2013-01-03 11:22:00,
2013-01-03 05:27:00,18.1,17.6,30.31,ENE,64,0.0,0.0,98,0.00,,,0.00,VWS V13.01,2013-01-03 11:27:00,
2013-01-03 05:32:00,18.1,17.6,30.31,ENE,64,0.0,0.0,98,0.00,,,0.00,VWS V13.01,2013-01-03 11:32:00,
2013-01-03 05:37:00,17.9,17.5,30.31,ENE,64,0.0,0.0,98,0.00,,,0.00,VWS V13.01,2013-01-03 11:37:00,
2013-01-03 05:42:00,17.9,17.5,30.31,ENE,64,0.0,0.0,98,0.00,,,0.00,VWS V13.01,2013-01-03 11:42:00,
2013-01-03 05:47:00,17.9,17.5,30.31,ENE,64,0.0,0.0,98,0.00,,,0.00,VWS V13.01,2013-01-03 11:47:00,
2013-01-03 05:52:00,17.9,17.5,30.31,ENE,64,0.0,0.0,98,0.00,,,0.00,VWS V13.01,2013-01-03 11:52:00,
2013-01-03 05:57:00,17.8,17.3,30.31,ENE,64,0.0,0.0,98,0.00,,,0.00,VWS V13.01,2013-01-03 11:57:00,
2013-01-03 06:02:00,17.6,17.1,30.31,ENE,64,0.0,0.0,98,0.00,,,0.00,VWS V13.01,2013-01-03 12:02:00,
2013-01-03 06:07:00,17.6,16.9,30.31,ENE,64,0.0,0.0,97,0.00,,,0.00,VWS V13.01,2013-01-03 12:07:00,
2013-01-03 06:12:00,17.8,17.3,30.31,ENE,64,0.0,0.0,98,0.00,,,0.00,VWS V13.01,2013-01-03 12:12:00,
2013-01-03 06:17:00,17.8,17.3,30.31,ENE,64,0.0,0.0,98,0.00,,,0.00,VWS V13.01,2013-01-03 12:17:00,
2013-01-03 06:22:00,17.8,17.0,30.31,ENE,64,0.0,0.0,97,0.00,,,0.00,VWS V13.01,2013-01-03 12:22:00,
2013-01-03 06:27:00,17.8,17.0,30.31,ENE,64,0.0,0.0,97,0.00,,,0.00,VWS V13.01,2013-01-03 12:27:00,
2013-01-03 06:32:00,17.8,17.0,30.31,ENE,64,0.0,0.0,97,0.00,,,0.00,VWS V13.01,2013-01-03 12:32:00,
2013-01-03 06:37:00,17.8,16.8,30.31,ENE,64,0.0,0.0,96,0.00,,,0.00,VWS V13.01,2013-01-03 12:37:00,
2013-01-03 06:42:00,17.8,16.8,30.31,ENE,64,0.0,0.0,96,0.00,,,0.00,VWS V13.01,2013-01-03 12:42:00,
2013-01-03 06:47:00,17.6,16.6,30.34,ENE,64,0.0,0.0,96,0.00,,,0.00,VWS V13.01,2013-01-03 12:47:00,
2013-01-03 06:52:00,17.6,16.4,30.34,ENE,64,0.0,0.0,95,0.00,,,0.00,VWS V13.01,2013-01-03 12:52:00,
2013-01-03 06:57:00,17.4,16.5,30.34,ENE,64,0.0,0.0,96,0.00,,,0.00,VWS V13.01,2013-01-03 12:57:00,
2013-01-03 07:02:00,17.4,16.5,30.34,ENE,64,0.0,0.0,96,0.00,,,0.00,VWS V13.01,2013-01-03 13:02:00,
2013-01-03 07:07:00,17.4,16.5,30.34,ENE,64,0.0,0.0,96,0.00,,,0.00,VWS V13.01,2013-01-03 13:07:00,
2013-01-03 07:12:00,17.6,16.6,30.34,ENE,64,0.0,0.0,96,0.00,,,0.00,VWS V13.01,2013-01-03 13:12:00,
2013-01-03 07:17:00,17.4,16.5,30.34,ENE,64,0.0,0.0,96,0.00,,,0.00,VWS V13.01,2013-01-03 13:17:00,
2013-01-03 07:22:00,17.4,16.5,30.34,ENE,64,0.0,0.0,96,0.00,,,0.00,VWS V13.01,2013-01-03 13:22:00,
2013-01-03 07:27:00,17.4,16.5,30.34,ENE,64,0.0,0.0,96,0.00,,,0.00,VWS V13.01,2013-01-03 13:27:00,
2013-01-03 07:32:00,17.2,16.3,30.34,ENE,64,0.0,0.0,96,0.00,,,0.00,VWS V13.01,2013-01-03 13:32:00,
2013-01-03 07:37:00,17.2,16.3,30.34,ENE,64,0.0,0.0,96,0.00,,,0.00,VWS V13.01,2013-01-03 13:37:00,
2013-01-03 07:42:00,17.2,16.3,30.34,ENE,64,0.0,0.0,96,0.00,,,0.00,VWS V13.01,2013-01-03 13:42:00,
2013-01-03 07:47:00,17.4,16.5,30.37,ENE,64,0.0,0.0,96,0.00,,,0.00,VWS V13.01,2013-01-03 13:47:00,
2013-01-03 07:52:00,17.6,16.6,30.37,ENE,64,0.0,0.0,96,0.00,,,0.00,VWS V13.01,2013-01-03 13:52:00,
2013-01-03 07:57:00,18.1,17.4,30.37,ENE,64,0.0,0.0,97,0.00,,,0.00,VWS V13.01,2013-01-03 13:57:00,
2013-01-03 08:02:00,18.3,17.6,30.37,ENE,64,0.0,0.0,97,0.00,,,0.00,VWS V13.01,2013-01-03 14:02:00,
2013-01-03 08:07:00,18.8,18.4,30.37,ENE,64,0.0,0.0,98,0.00,,,0.00,VWS V13.01,2013-01-03 14:07:00,
2013-01-03 08:12:00,19.4,18.9,30.37,ENE,64,0.0,0.0,98,0.00,,,0.00,VWS V13.01,2013-01-03 14:12:00,
2013-01-03 08:17:00,19.9,19.5,30.37,ENE,64,0.0,0.0,98,0.00,,,0.00,VWS V13.01,2013-01-03 14:17:00,
2013-01-03 08:22:00,20.5,20.0,30.37,ENE,64,0.0,0.0,98,0.00,,,0.00,VWS V13.01,2013-01-03 14:22:00,
2013-01-03 08:27:00,20.8,20.3,30.37,ENE,64,0.0,0.0,98,0.00,,,0.00,VWS V13.01,2013-01-03 14:27:00,
2013-01-03 08:32:00,20.8,20.1,30.37,ENE,64,0.0,0.0,97,0.00,,,0.00,VWS V13.01,2013-01-03 14:32:00,
2013-01-03 08:37:00,21.0,20.3,30.37,ENE,64,0.0,0.0,97,0.00,,,0.00,VWS V13.01,2013-01-03 14:37:00,
2013-01-03 08:42:00,21.4,20.4,30.37,ENE,64,0.0,0.0,96,0.00,,,0.00,VWS V13.01,2013-01-03 14:42:00,
2013-01-03 08:47:00,21.7,21.0,30.40,ENE,64,0.0,0.0,97,0.00,,,0.00,VWS V13.01,2013-01-03 14:47:00,
2013-01-03 08:52:00,22.1,21.4,30.40,ENE,64,0.0,0.0,97,0.00,,,0.00,VWS V13.01,2013-01-03 14:52:00,
2013-01-03 08:57:00,22.4,21.7,30.40,ENE,64,0.0,0.0,97,0.00,,,0.00,VWS V13.01,2013-01-03 14:57:00,
2013-01-03 09:02:00,22.6,21.9,30.40,ENE,64,0.0,0.0,97,0.00,,,0.00,VWS V13.01,2013-01-03 15:02:00,
2013-01-03 09:07:00,23.2,22.4,30.40,ENE,64,0.0,0.0,97,0.00,,,0.00,VWS V13.01,2013-01-03 15:07:00,
2013-01-03 09:12:00,23.7,23.0,30.40,ENE,64,0.0,0.0,97,0.00,,,0.00,VWS V13.01,2013-01-03 15:12:00,
2013-01-03 09:17:00,24.1,23.3,30.40,ENE,64,0.0,0.0,97,0.00,,,0.00,VWS V13.01,2013-01-03 15:17:00,
2013-01-03 09:22:00,24.6,23.9,30.40,ENE,64,0.0,0.0,97,0.00,,,0.00,VWS V13.01,2013-01-03 15:22:00,
2013-01-03 09:27:00,25.1,24.4,30.40,ENE,64,0.0,0.0,97,0.00,,,0.00,VWS V13.01,2013-01-03 15:27:00,
2013-01-03 09:32:00,25.7,25.0,30.40,ENE,64,0.0,0.0,97,0.00,,,0.00,VWS V13.01,2013-01-03 15:32:00,
2013-01-03 09:37:00,26.4,25.7,30.40,ENE,64,0.0,0.0,97,0.00,,,0.00,VWS V13.01,2013-01-03 15:37:00,
2013-01-03 09:42:00,26.8,26.0,30.40,ENE,64,0.0,0.0,97,0.00,,,0.00,VWS V13.01,2013-01-03 15:42:00,
2013-01-03 09:47:00,27.5,26.7,30.40,ENE,64,0.0,0.0,97,0.00,,,0.00,VWS V13.01,2013-01-03 15:47:00,
2013-01-03 09:52:00,28.2,27.2,30.40,ENE,64,0.0,0.0,96,0.00,,,0.00,VWS V13.01,2013-01-03 15:52:00,
2013-01-03 09:57:00,28.6,27.1,30.40,ENE,64,0.0,0.0,94,0.00,,,0.00,VWS V13.01,2013-01-03 15:57:00,
2013-01-03 10:02:00,28.9,27.4,30.42,SSE,152,0.0,0.0,94,0.00,,,0.00,VWS V13.01,2013-01-03 16:02:00,
2013-01-03 10:07:00,29.5,27.4,30.42,SSW,193,0.0,0.0,92,0.00,,,0.00,VWS V13.01,2013-01-03 16:07:00,
2013-01-03 10:12:00,30.0,27.4,30.42,South,171,0.0,0.0,90,0.00,,,0.00,VWS V13.01,2013-01-03 16:12:00,
2013-01-03 10:17:00,30.5,27.1,30.42,SSE,161,3.6,4.0,87,0.00,,,0.00,VWS V13.01,2013-01-03 16:17:00,
2013-01-03 10:22:00,30.9,26.9,30.42,SSE,167,2.2,4.9,85,0.00,,,0.00,VWS V13.01,2013-01-03 16:22:00,
2013-01-03 10:27:00,31.3,27.0,30.42,SW,217,3.6,4.0,84,0.00,,,0.00,VWS V13.01,2013-01-03 16:27:00,
2013-01-03 10:32:00,31.4,26.6,30.42,South,170,3.1,4.9,82,0.00,,,0.00,VWS V13.01,2013-01-03 16:32:00,
2013-01-03 10:37:00,31.6,26.2,30.42,SSE,150,2.7,4.9,80,0.00,,,0.00,VWS V13.01,2013-01-03 16:37:00,
2013-01-03 10:42:00,31.8,26.4,30.42,WSW,248,3.1,4.9,80,0.00,,,0.00,VWS V13.01,2013-01-03 16:42:00,
2013-01-03 10:47:00,32.3,27.2,30.42,South,170,3.6,5.4,81,0.00,,,0.00,VWS V13.01,2013-01-03 16:47:00,
2013-01-03 10:52:00,32.5,26.1,30.42,South,179,3.1,5.4,77,0.00,,,0.00,VWS V13.01,2013-01-03 16:52:00,
2013-01-03 10:57:00,32.9,26.8,30.42,South,190,2.7,4.0,78,0.00,,,0.00,VWS V13.01,2013-01-03 16:57:00,
2013-01-03 11:02:00,33.2,26.2,30.42,SSE,168,2.7,4.0,75,0.00,,,0.00,VWS V13.01,2013-01-03 17:02:00,
2013-01-03 11:07:00,33.4,26.7,30.42,South,178,5.8,5.8,76,0.00,,,0.00,VWS V13.01,2013-01-03 17:07:00,
2013-01-03 11:12:00,33.8,26.7,30.42,South,188,6.3,6.3,75,0.00,,,0.00,VWS V13.01,2013-01-03 17:12:00,
2013-01-03 11:17:00,34.1,26.4,30.42,South,187,5.4,6.3,73,0.00,,,0.00,VWS V13.01,2013-01-03 17:17:00,
2013-01-03 11:22:00,34.3,26.2,30.42,South,170,4.0,6.3,72,0.00,,,0.00,VWS V13.01,2013-01-03 17:22:00,
2013-01-03 11:27:00,35.0,27.3,30.42,SSE,157,3.1,3.1,73,0.00,,,0.00,VWS V13.01,2013-01-03 17:27:00,
2013-01-03 11:32:00,35.6,25.7,30.40,SW,231,4.9,6.3,67,0.00,,,0.00,VWS V13.01,2013-01-03 17:32:00,
2013-01-03 11:37:00,35.9,26.4,30.40,SW,229,3.6,4.9,68,0.00,,,0.00,VWS V13.01,2013-01-03 17:37:00,
2013-01-03 11:42:00,36.7,27.1,30.40,South,176,6.7,6.7,68,0.00,,,0.00,VWS V13.01,2013-01-03 17:42:00,
2013-01-03 11:47:00,37.2,27.3,30.40,SSW,198,3.6,5.8,67,0.00,,,0.00,VWS V13.01,2013-01-03 17:47:00,
2013-01-03 11:51:00,37.4,26.7,30.40,SE,125,3.1,4.0,65,0.00,,,0.00,VWS V13.01,2013-01-03 17:51:00,
2013-01-03 11:56:00,38.1,26.6,30.40,WSW,243,4.0,5.4,63,0.00,,,0.00,VWS V13.01,2013-01-03 17:56:00,
2013-01-03 12:01:00,37.9,26.1,30.40,SSW,206,4.0,5.8,62,0.00,,,0.00,VWS V13.01,2013-01-03 18:01:00,
2013-01-03 12:06:00,38.3,26.4,30.40,SSW,203,5.8,8.7,62,0.00,,,0.00,VWS V13.01,2013-01-03 18:06:00,
2013-01-03 12:11:00,38.5,26.2,30.40,SW,234,4.9,4.9,61,0.00,,,0.00,VWS V13.01,2013-01-03 18:11:00,
2013-01-03 12:16:00,38.6,26.4,30.40,South,171,7.6,7.6,61,0.00,,,0.00,VWS V13.01,2013-01-03 18:16:00,
2013-01-03 12:21:00,38.6,26.4,30.40,SSW,194,4.9,8.7,61,0.00,,,0.00,VWS V13.01,2013-01-03 18:21:00,
2013-01-03 12:26:00,39.0,26.7,30.40,SSW,207,5.4,5.4,61,0.00,,,0.00,VWS V13.01,2013-01-03 18:26:00,
2013-01-03 12:31:00,39.0,26.3,30.40,SSW,200,5.4,7.6,60,0.00,,,0.00,VWS V13.01,2013-01-03 18:31:00,
2013-01-03 12:36:00,39.2,26.5,30.40,SSW,197,3.6,4.0,60,0.00,,,0.00,VWS V13.01,2013-01-03 18:36:00,
2013-01-03 12:41:00,39.5,26.8,30.40,SSE,163,5.4,6.3,60,0.00,,,0.00,VWS V13.01,2013-01-03 18:41:00,
2013-01-03 12:46:00,39.7,26.6,30.40,South,175,3.6,5.4,59,0.00,,,0.00,VWS V13.01,2013-01-03 18:46:00,
2013-01-03 12:51:00,40.1,26.9,30.40,South,170,5.8,5.8,59,0.00,,,0.00,VWS V13.01,2013-01-03 18:51:00,
2013-01-03 12:56:00,39.9,26.8,30.40,South,185,5.4,8.1,59,0.00,,,0.00,VWS V13.01,2013-01-03 18:56:00,
2013-01-03 13:01:00,39.9,26.8,30.40,SSE,152,7.6,8.1,59,0.00,,,0.00,VWS V13.01,2013-01-03 19:01:00,
2013-01-03 13:06:00,39.9,26.8,30.40,SE,132,2.7,4.9,59,0.00,,,0.00,VWS V13.01,2013-01-03 19:06:00,
2013-01-03 13:11:00,40.1,26.9,30.40,SSE,168,5.8,6.3,59,0.00,,,0.00,VWS V13.01,2013-01-03 19:11:00,
2013-01-03 13:16:00,40.3,27.1,30.40,South,189,4.9,5.4,59,0.00,,,0.00,VWS V13.01,2013-01-03 19:16:00,
2013-01-03 13:56:00,42.1,28.4,30.37,SW,221,3.6,3.6,58,0.00,,,0.00,VWS V13.01,2013-01-03 19:56:00,
2013-01-03 14:01:00,42.1,28.4,30.37,SSW,199,5.4,5.4,58,0.00,,,0.00,VWS V13.01,2013-01-03 20:01:00,
2013-01-03 14:06:00,41.9,28.2,30.37,South,182,4.0,4.0,58,0.00,,,0.00,VWS V13.01,2013-01-03 20:06:00,
2013-01-03 14:11:00,41.9,28.2,30.37,SSW,210,5.4,5.4,58,0.00,,,0.00,VWS V13.01,2013-01-03 20:11:00,
2013-01-03 14:16:00,41.9,28.2,30.37,SW,218,3.6,7.6,58,0.00,,,0.00,VWS V13.01,2013-01-03 20:16:00,
2013-01-03 14:21:00,42.1,28.4,30.37,South,187,6.3,6.3,58,0.00,,,0.00,VWS V13.01,2013-01-03 20:21:00,
2013-01-03 14:26:00,42.2,28.1,30.37,SSW,208,4.9,8.1,57,0.00,,,0.00,VWS V13.01,2013-01-03 20:26:00,
2013-01-03 14:31:00,42.6,28.5,30.37,South,179,7.6,8.3,57,0.00,,,0.00,VWS V13.01,2013-01-03 20:31:00,
2013-01-03 14:36:00,42.4,28.7,30.37,SSE,168,6.3,8.1,58,0.00,,,0.00,VWS V13.01,2013-01-03 20:36:00,
2013-01-03 14:41:00,42.4,28.3,30.37,South,177,8.1,8.1,57,0.00,,,0.00,VWS V13.01,2013-01-03 20:41:00,
2013-01-03 14:46:00,42.4,28.7,30.37,SSW,207,7.6,7.6,58,0.00,,,0.00,VWS V13.01,2013-01-03 20:46:00,
2013-01-03 14:51:00,42.4,27.9,30.37,SSE,164,8.7,11.0,56,0.00,,,0.00,VWS V13.01,2013-01-03 20:51:00,
2013-01-03 14:56:00,42.6,28.5,30.37,South,179,4.9,5.4,57,0.00,,,0.00,VWS V13.01,2013-01-03 20:56:00,
2013-01-03 15:01:00,42.6,28.5,30.37,SSW,208,5.8,7.2,57,0.00,,,0.00,VWS V13.01,2013-01-03 21:01:00,
2013-01-03 15:06:00,42.6,28.0,30.37,SSW,209,5.8,8.7,56,0.00,,,0.00,VWS V13.01,2013-01-03 21:06:00,
2013-01-03 15:11:00,42.2,27.7,30.37,South,178,7.6,7.6,56,0.00,,,0.00,VWS V13.01,2013-01-03 21:11:00,
2013-01-03 15:16:00,42.2,28.1,30.37,South,174,5.4,7.6,57,0.00,,,0.00,VWS V13.01,2013-01-03 21:16:00,
2013-01-03 15:21:00,42.2,28.5,30.37,South,188,5.8,6.3,58,0.00,,,0.00,VWS V13.01,2013-01-03 21:21:00,
2013-01-03 15:26:00,42.2,28.1,30.37,South,176,5.8,6.3,57,0.00,,,0.00,VWS V13.01,2013-01-03 21:26:00,
2013-01-03 15:31:00,42.4,28.7,30.37,SSW,196,5.8,6.3,58,0.00,,,0.00,VWS V13.01,2013-01-03 21:31:00,
2013-01-03 15:35:00,42.6,28.0,30.37,South,170,6.3,6.3,56,0.00,,,0.00,VWS V13.01,2013-01-03 21:35:00,
2013-01-03 15:41:00,42.4,27.9,30.37,SSW,196,4.9,5.8,56,0.00,,,0.00,VWS V13.01,2013-01-03 21:41:00,
2013-01-03 15:46:00,42.2,27.7,30.37,SSE,168,5.4,8.3,56,0.00,,,0.00,VWS V13.01,2013-01-03 21:46:00,
2013-01-03 15:51:00,42.2,28.1,30.37,SSW,209,6.3,6.3,57,0.00,,,0.00,VWS V13.01,2013-01-03 21:51:00,
2013-01-03 15:56:00,42.2,28.1,30.37,SSW,198,5.4,6.3,57,0.00,,,0.00,VWS V13.01,2013-01-03 21:56:00,
2013-01-03 16:01:00,42.1,27.5,30.37,South,174,8.3,8.7,56,0.00,,,0.00,VWS V13.01,2013-01-03 22:01:00,
2013-01-03 16:06:00,42.1,27.5,30.37,South,185,5.4,6.3,56,0.00,,,0.00,VWS V13.01,2013-01-03 22:06:00,
2013-01-03 16:11:00,42.1,28.4,30.37,South,177,7.2,7.2,58,0.00,,,0.00,VWS V13.01,2013-01-03 22:11:00,
2013-01-03 16:16:00,41.9,27.8,30.37,SSW,208,3.6,6.3,57,0.00,,,0.00,VWS V13.01,2013-01-03 22:16:00,
2013-01-03 16:21:00,41.9,27.8,30.37,SSW,209,5.4,10.5,57,0.00,,,0.00,VWS V13.01,2013-01-03 22:21:00,
2013-01-03 16:25:00,41.7,28.0,30.37,SSW,202,4.9,6.3,58,0.00,,,0.00,VWS V13.01,2013-01-03 22:25:00,
2013-01-03 16:30:00,41.5,27.9,30.37,SSE,165,4.5,5.8,58,0.00,,,0.00,VWS V13.01,2013-01-03 22:30:00,
2013-01-03 16:35:00,41.5,27.9,30.37,SSW,203,5.4,5.8,58,0.00,,,0.00,VWS V13.01,2013-01-03 22:35:00,
2013-01-03 16:40:00,41.3,27.7,30.37,SSW,199,2.7,4.0,58,0.00,,,0.00,VWS V13.01,2013-01-03 22:40:00,
2013-01-03 16:45:00,41.2,27.5,30.37,SSW,197,3.1,3.6,58,0.00,,,0.00,VWS V13.01,2013-01-03 22:45:00,
2013-01-03 16:50:00,41.2,27.5,30.37,South,185,3.6,3.6,58,0.00,,,0.00,VWS V13.01,2013-01-03 22:50:00,
2013-01-03 16:55:00,40.8,27.2,30.37,South,185,2.7,3.1,58,0.00,,,0.00,VWS V13.01,2013-01-03 22:55:00,
2013-01-03 17:00:00,40.6,27.4,30.37,South,177,2.7,3.1,59,0.00,,,0.00,VWS V13.01,2013-01-03 23:00:00,
2013-01-03 17:05:00,40.3,27.1,30.37,South,177,2.7,2.7,59,0.00,,,0.00,VWS V13.01,2013-01-03 23:05:00,
2013-01-03 17:10:00,40.1,26.9,30.37,SSW,193,2.2,2.7,59,0.00,,,0.00,VWS V13.01,2013-01-03 23:10:00,
2013-01-03 17:15:00,39.7,26.6,30.37,South,188,2.7,2.7,59,0.00,,,0.00,VWS V13.01,2013-01-03 23:15:00,
2013-01-03 17:20:00,39.5,26.4,30.37,South,190,2.7,3.1,59,0.00,,,0.00,VWS V13.01,2013-01-03 23:20:00,
2013-01-03 17:25:00,39.2,26.1,30.37,South,186,0.0,2.2,59,0.00,,,0.00,VWS V13.01,2013-01-03 23:25:00,
2013-01-03 17:30:00,38.6,26.0,30.37,South,186,0.0,0.0,60,0.00,,,0.00,VWS V13.01,2013-01-03 23:30:00,
2013-01-03 17:35:00,38.5,25.8,30.37,South,186,0.0,0.0,60,0.00,,,0.00,VWS V13.01,2013-01-03 23:35:00,
2013-01-03 17:40:00,38.3,25.6,30.37,South,186,0.0,0.0,60,0.00,,,0.00,VWS V13.01,2013-01-03 23:40:00,
2013-01-03 17:45:00,37.9,26.1,30.37,South,186,0.0,0.0,62,0.00,,,0.00,VWS V13.01,2013-01-03 23:45:00,
2013-01-03 17:50:00,37.6,25.7,30.37,South,186,0.0,0.0,62,0.00,,,0.00,VWS V13.01,2013-01-03 23:50:00,
2013-01-03 17:55:00,36.8,25.8,30.37,South,186,0.0,0.0,64,0.00,,,0.00,VWS V13.01,2013-01-03 23:55:00,
2013-01-03 18:00:00,35.9,25.3,30.37,South,186,0.0,0.0,65,0.00,,,0.00,VWS V13.01,2013-01-04 00:00:00,
2013-01-03 18:05:00,35.6,25.4,30.37,South,186,0.0,0.0,66,0.00,,,0.00,VWS V13.01,2013-01-04 00:05:00,
2013-01-03 18:10:00,35.6,25.4,30.37,South,186,0.0,0.0,66,0.00,,,0.00,VWS V13.01,2013-01-04 00:10:00,
2013-01-03 18:15:00,35.0,25.9,30.37,South,186,0.0,0.0,69,0.00,,,0.00,VWS V13.01,2013-01-04 00:15:00,
2013-01-03 18:20:00,33.8,25.7,30.37,South,186,0.0,0.0,72,0.00,,,0.00,VWS V13.01,2013-01-04 00:20:00,
2013-01-03 18:25:00,32.9,25.8,30.37,South,186,3.6,3.6,75,0.00,,,0.00,VWS V13.01,2013-01-04 00:25:00,
2013-01-03 18:30:00,32.3,25.6,30.37,South,186,2.2,2.7,76,0.00,,,0.00,VWS V13.01,2013-01-04 00:30:00,
2013-01-03 18:35:00,31.8,26.4,30.37,South,186,0.0,0.0,80,0.00,,,0.00,VWS V13.01,2013-01-04 00:35:00,
2013-01-03 18:40:00,31.6,26.5,30.37,South,186,0.0,0.0,81,0.00,,,0.00,VWS V13.01,2013-01-04 00:40:00,
2013-01-03 18:45:00,31.3,26.4,30.40,South,186,0.0,0.0,82,0.00,,,0.00,VWS V13.01,2013-01-04 00:45:00,
2013-01-03 18:50:00,31.1,26.8,30.40,South,186,0.0,0.0,84,0.00,,,0.00,VWS V13.01,2013-01-04 00:50:00,
2013-01-03 18:55:00,30.9,26.6,30.40,South,186,0.0,0.0,84,0.00,,,0.00,VWS V13.01,2013-01-04 00:55:00,
2013-01-03 19:00:00,30.7,26.5,30.40,South,186,0.0,0.0,84,0.00,,,0.00,VWS V13.01,2013-01-04 01:00:00,
2013-01-03 19:05:00,30.4,26.1,30.40,NE,38,0.0,0.0,84,0.00,,,0.00,VWS V13.01,2013-01-04 01:05:00,
2013-01-03 19:10:00,29.8,26.1,30.40,NNE,32,0.0,0.0,86,0.00,,,0.00,VWS V13.01,2013-01-04 01:10:00,
2013-01-03 19:15:00,29.5,25.8,30.40,NNE,26,0.0,0.0,86,0.00,,,0.00,VWS V13.01,2013-01-04 01:15:00,
2013-01-03 19:20:00,29.1,26.0,30.40,North,9,0.0,0.0,88,0.00,,,0.00,VWS V13.01,2013-01-04 01:20:00,
2013-01-03 19:25:00,28.7,25.9,30.40,North,9,0.0,0.0,89,0.00,,,0.00,VWS V13.01,2013-01-04 01:25:00,
2013-01-03 19:30:00,28.6,25.7,30.40,North,10,0.0,0.0,89,0.00,,,0.00,VWS V13.01,2013-01-04 01:30:00,
2013-01-03 19:35:00,28.4,25.8,30.40,North,10,0.0,0.0,90,0.00,,,0.00,VWS V13.01,2013-01-04 01:35:00,
2013-01-03 19:40:00,28.4,25.8,30.40,North,10,0.0,0.0,90,0.00,,,0.00,VWS V13.01,2013-01-04 01:40:00,
2013-01-03 19:45:00,28.2,25.9,30.40,North,10,0.0,0.0,91,0.00,,,0.00,VWS V13.01,2013-01-04 01:45:00,
2013-01-03 19:50:00,28.2,25.9,30.40,North,10,0.0,0.0,91,0.00,,,0.00,VWS V13.01,2013-01-04 01:50:00,
2013-01-03 19:55:00,28.0,25.7,30.40,North,10,0.0,0.0,91,0.00,,,0.00,VWS V13.01,2013-01-04 01:55:00,
2013-01-03 20:00:00,27.8,25.8,30.40,North,10,0.0,0.0,92,0.00,,,0.00,VWS V13.01,2013-01-04 02:00:00,
2013-01-03 20:05:00,27.7,25.9,30.40,North,10,0.0,0.0,93,0.00,,,0.00,VWS V13.01,2013-01-04 02:05:00,
2013-01-03 20:10:00,27.5,25.7,30.40,North,10,0.0,0.0,93,0.00,,,0.00,VWS V13.01,2013-01-04 02:10:00,
2013-01-03 20:15:00,27.5,25.7,30.40,North,10,0.0,0.0,93,0.00,,,0.00,VWS V13.01,2013-01-04 02:15:00,
2013-01-03 20:20:00,27.5,25.7,30.40,North,10,0.0,0.0,93,0.00,,,0.00,VWS V13.01,2013-01-04 02:20:00,
2013-01-03 20:25:00,27.3,25.5,30.40,North,10,0.0,0.0,93,0.00,,,0.00,VWS V13.01,2013-01-04 02:25:00,
2013-01-03 20:30:00,27.1,25.1,30.40,North,10,0.0,0.0,92,0.00,,,0.00,VWS V13.01,2013-01-04 02:30:00,
2013-01-03 20:35:00,26.9,24.9,30.40,North,10,0.0,0.0,92,0.00,,,0.00,VWS V13.01,2013-01-04 02:35:00,
2013-01-03 20:40:00,26.8,25.3,30.40,North,10,0.0,0.0,94,0.00,,,0.00,VWS V13.01,2013-01-04 02:40:00,
2013-01-03 20:45:00,26.6,25.1,30.40,North,10,0.0,0.0,94,0.00,,,0.00,VWS V13.01,2013-01-04 02:45:00,
2013-01-03 20:50:00,26.6,25.3,30.40,North,10,0.0,0.0,95,0.00,,,0.00,VWS V13.01,2013-01-04 02:50:00,
2013-01-03 20:55:00,26.2,25.0,30.40,North,10,0.0,0.0,95,0.00,,,0.00,VWS V13.01,2013-01-04 02:55:00,
2013-01-03 21:00:00,26.0,25.1,30.40,North,10,0.0,0.0,96,0.00,,,0.00,VWS V13.01,2013-01-04 03:00:00,
2013-01-03 21:05:00,25.9,25.1,30.40,North,10,0.0,0.0,97,0.00,,,0.00,VWS V13.01,2013-01-04 03:05:00,
2013-01-03 21:10:00,25.9,25.1,30.40,North,10,0.0,0.0,97,0.00,,,0.00,VWS V13.01,2013-01-04 03:10:00,
2013-01-03 21:15:00,25.7,25.0,30.40,North,10,0.0,0.0,97,0.00,,,0.00,VWS V13.01,2013-01-04 03:15:00,
2013-01-03 21:20:00,25.5,24.8,30.40,North,10,0.0,0.0,97,0.00,,,0.00,VWS V13.01,2013-01-04 03:20:00,
2013-01-03 21:25:00,25.3,24.6,30.40,North,10,0.0,0.0,97,0.00,,,0.00,VWS V13.01,2013-01-04 03:25:00,
2013-01-03 21:30:00,25.3,24.6,30.40,North,10,0.0,0.0,97,0.00,,,0.00,VWS V13.01,2013-01-04 03:30:00,
2013-01-03 21:35:00,25.1,24.6,30.40,North,10,0.0,0.0,98,0.00,,,0.00,VWS V13.01,2013-01-04 03:35:00,
2013-01-03 21:40:00,25.0,24.7,30.40,North,10,0.0,0.0,99,0.00,,,0.00,VWS V13.01,2013-01-04 03:40:00,
2013-01-03 21:45:00,25.0,24.7,30.40,North,10,0.0,0.0,99,0.00,,,0.00,VWS V13.01,2013-01-04 03:45:00,
2013-01-03 21:50:00,24.8,24.5,30.40,North,10,0.0,0.0,99,0.00,,,0.00,VWS V13.01,2013-01-04 03:50:00,
2013-01-03 21:55:00,24.8,24.5,30.40,North,10,0.0,0.0,99,0.00,,,0.00,VWS V13.01,2013-01-04 03:55:00,
2013-01-03 22:00:00,24.6,24.6,30.40,North,10,0.0,0.0,100,0.00,,,0.00,VWS V13.01,2013-01-04 04:00:00,
2013-01-03 22:05:00,24.4,24.4,30.40,North,10,0.0,0.0,100,0.00,,,0.00,VWS V13.01,2013-01-04 04:05:00,
2013-01-03 22:10:00,24.4,24.4,30.40,North,10,0.0,0.0,100,0.00,,,0.00,VWS V13.01,2013-01-04 04:10:00,
2013-01-03 22:15:00,24.4,24.4,30.40,North,10,0.0,0.0,100,0.00,,,0.00,VWS V13.01,2013-01-04 04:15:00,
2013-01-03 22:20:00,24.6,24.6,30.40,North,10,0.0,0.0,100,0.00,,,0.00,VWS V13.01,2013-01-04 04:20:00,
2013-01-03 22:25:00,25.0,25.0,30.40,North,10,0.0,0.0,100,0.00,,,0.00,VWS V13.01,2013-01-04 04:25:00,
2013-01-03 22:30:00,25.0,25.0,30.40,North,10,0.0,0.0,100,0.00,,,0.00,VWS V13.01,2013-01-04 04:30:00,
2013-01-03 22:35:00,24.8,24.8,30.40,North,10,0.0,0.0,100,0.00,,,0.00,VWS V13.01,2013-01-04 04:35:00,
2013-01-03 22:40:00,24.6,24.6,30.40,North,10,0.0,0.0,100,0.00,,,0.00,VWS V13.01,2013-01-04 04:40:00,
2013-01-03 22:45:00,24.4,24.4,30.40,North,10,0.0,0.0,100,0.00,,,0.00,VWS V13.01,2013-01-04 04:45:00,
2013-01-03 22:50:00,24.2,24.2,30.40,North,10,0.0,0.0,100,0.00,,,0.00,VWS V13.01,2013-01-04 04:50:00,
2013-01-03 22:55:00,24.2,24.2,30.40,North,10,0.0,0.0,100,0.00,,,0.00,VWS V13.01,2013-01-04 04:55:00,
2013-01-03 23:00:00,24.1,24.1,30.40,North,10,0.0,0.0,100,0.00,,,0.00,VWS V13.01,2013-01-04 05:00:00,
2013-01-03 23:02:00,24.1,24.1,30.40,North,10,0.0,0.0,100,0.00,,,0.00,VWS V13.01,2013-01-04 05:02:00,
2013-01-03 23:03:00,24.1,24.1,30.40,North,10,0.0,0.0,100,0.00,,,0.00,VWS V13.01,2013-01-04 05:03:00,
2013-01-03 23:08:00,24.1,24.1,30.40,North,10,0.0,0.0,100,0.00,,,0.00,VWS V13.01,2013-01-04 05:08:00,
2013-01-03 23:13:00,24.1,24.1,30.40,North,10,0.0,0.0,100,0.00,,,0.00,VWS V13.01,2013-01-04 05:13:00,
2013-01-03 23:18:00,23.9,23.9,30.40,North,10,0.0,0.0,100,0.00,,,0.00,VWS V13.01,2013-01-04 05:18:00,
2013-01-03 23:23:00,23.9,23.9,30.40,North,10,0.0,0.0,100,0.00,,,0.00,VWS V13.01,2013-01-04 05:23:00,
2013-01-03 23:28:00,23.9,23.9,30.40,North,10,0.0,0.0,100,0.00,,,0.00,VWS V13.01,2013-01-04 05:28:00,
2013-01-03 23:33:00,23.9,23.9,30.40,North,10,0.0,0.0,100,0.00,,,0.00,VWS V13.01,2013-01-04 05:33:00,
2013-01-03 23:38:00,23.9,23.9,30.40,North,10,0.0,0.0,100,0.00,,,0.00,VWS V13.01,2013-01-04 05:38:00,
2013-01-03 23:43:00,23.7,23.7,30.40,North,10,0.0,0.0,100,0.00,,,0.00,VWS V13.01,2013-01-04 05:43:00,
2013-01-03 23:48:00,23.5,23.5,30.40,North,10,0.0,0.0,100,0.00,,,0.00,VWS V13.01,2013-01-04 05:48:00,
2013-01-03 23:53:00,23.2,22.9,30.40,North,10,0.0,0.0,99,0.00,,,0.00,VWS V13.01,2013-01-04 05:53:00,
2013-01-03 23:58:00,23.0,22.7,30.40,North,10,0.0,0.0,99,0.00,,,0.00,VWS V13.01,2013-01-04 05:58:00,